Time,TemperatureF,DewpointF,PressureIn,WindDirection,WindDirectionDegrees,WindSpeedMPH,WindSpeedGustMPH,Humidity,HourlyPrecipIn,Conditions,Clouds,dailyrainin,SoftwareType,DateUTC
2013-07-18 00:00:00,72.0,68.9,30.12,ESE,112,0.0,0.0,90,0.00,,SKC,0.00,VWS V14.01,2013-07-18 05:00:00,
2013-07-18 00:20:00,71.8,69.0,30.09,ESE,112,0.0,0.0,91,0.00,,SKC,0.00,VWS V14.01,2013-07-18 05:20:00,
2013-07-18 00:40:00,71.4,68.7,30.09,ESE,112,0.0,0.0,91,0.00,,SKC,0.00,VWS V14.01,2013-07-18 05:40:00,
2013-07-18 01:00:00,71.2,68.8,30.09,ESE,112,0.0,0.0,92,0.00,,SKC,0.00,VWS V14.01,2013-07-18 06:00:00,
2013-07-18 01:20:00,71.1,68.9,30.09,ESE,112,0.0,0.0,93,0.00,,SKC,0.00,VWS V14.01,2013-07-18 06:20:00,
2013-07-18 01:40:00,70.9,68.8,30.09,ESE,112,0.0,0.0,93,0.00,,SKC,0.00,VWS V14.01,2013-07-18 06:40:00,
2013-07-18 02:00:00,71.1,69.2,30.06,ESE,112,0.0,0.0,94,0.00,,SKC,0.00,VWS V14.01,2013-07-18 07:00:00,
2013-07-18 02:20:00,71.1,69.2,30.06,SE,135,0.0,0.0,94,0.00,,SKC,0.00,VWS V14.01,2013-07-18 07:20:00,
2013-07-18 02:40:00,71.2,69.4,30.06,SE,135,0.0,2.3,94,0.00,,SKC,0.00,VWS V14.01,2013-07-18 07:40:00,
2013-07-18 03:00:00,71.4,69.6,30.06,SE,135,0.0,0.0,94,0.00,,SKC,0.00,VWS V14.01,2013-07-18 08:00:00,
2013-07-18 03:20:00,72.1,70.0,30.06,ESE,112,0.0,0.0,93,0.00,,SKC,0.00,VWS V14.01,2013-07-18 08:20:00,
2013-07-18 03:40:00,72.5,70.1,30.06,SSW,202,0.0,0.0,92,0.00,,SKC,0.00,VWS V14.01,2013-07-18 08:40:00,
2013-07-18 04:00:00,73.0,70.3,30.03,SSE,158,3.1,5.5,91,0.00,,SKC,0.00,VWS V14.01,2013-07-18 09:00:00,
2013-07-18 04:20:00,73.4,70.3,30.03,SSW,202,0.0,5.9,90,0.00,,SKC,0.00,VWS V14.01,2013-07-18 09:20:00,
2013-07-18 04:40:00,73.6,70.1,30.03,SSE,158,1.5,7.4,89,0.00,,SKC,0.00,VWS V14.01,2013-07-18 09:40:00,
2013-07-18 05:00:00,73.6,70.1,30.03,WSW,248,1.3,8.6,89,0.00,,SKC,0.00,VWS V14.01,2013-07-18 10:00:00,
2013-07-18 05:20:00,73.8,70.0,30.03,SSE,158,0.0,9.8,88,0.00,,SKC,0.00,VWS V14.01,2013-07-18 10:20:00,
2013-07-18 05:40:00,73.4,69.6,30.00,SE,135,0.0,5.9,88,0.00,,SKC,0.00,VWS V14.01,2013-07-18 10:40:00,
2013-07-18 06:00:00,73.4,70.0,30.00,SSE,158,1.3,7.4,89,0.00,,SKC,0.00,VWS V14.01,2013-07-18 11:00:00,
2013-07-18 06:20:00,73.2,69.8,30.00,South,180,1.8,10.6,89,0.00,,SKC,0.00,VWS V14.01,2013-07-18 11:20:00,
2013-07-18 06:40:00,73.4,70.0,30.00,South,180,0.0,9.8,89,0.00,,SKC,0.00,VWS V14.01,2013-07-18 11:40:00,
2013-07-18 07:00:00,73.4,70.3,30.00,SSE,158,1.8,5.5,90,0.00,,SKC,0.00,VWS V14.01,2013-07-18 12:00:00,
2013-07-18 07:20:00,73.9,70.5,30.00,WNW,292,2.3,4.3,89,0.00,,SKC,0.00,VWS V14.01,2013-07-18 12:20:00,
2013-07-18 07:40:00,74.7,71.2,30.00,South,180,1.5,6.3,89,0.00,,SKC,0.00,VWS V14.01,2013-07-18 12:40:00,
2013-07-18 08:00:00,75.6,71.8,30.00,WNW,292,3.3,7.4,88,0.00,,SKC,0.00,VWS V14.01,2013-07-18 13:00:00,
2013-07-18 08:20:00,77.4,72.5,30.00,ESE,112,2.6,11.7,85,0.00,,SKC,0.00,VWS V14.01,2013-07-18 13:20:00,
2013-07-18 08:40:00,78.4,72.5,30.00,South,180,1.8,10.6,82,0.00,,SKC,0.00,VWS V14.01,2013-07-18 13:40:00,
2013-07-18 09:00:00,80.2,73.1,30.00,WNW,292,4.4,9.8,79,0.00,,SKC,0.00,VWS V14.01,2013-07-18 14:00:00,
2013-07-18 09:20:00,83.5,74.3,29.97,SSW,202,6.2,11.0,74,0.00,,SKC,0.00,VWS V14.01,2013-07-18 14:20:00,
2013-07-18 09:40:00,86.2,73.9,30.00,SSW,202,2.8,13.3,67,0.00,,SKC,0.00,VWS V14.01,2013-07-18 14:40:00,
2013-07-18 10:00:00,88.0,75.2,29.97,SW,225,1.8,11.4,66,0.00,,SKC,0.00,VWS V14.01,2013-07-18 15:00:00,
2013-07-18 10:20:00,88.3,73.2,29.97,WSW,248,3.1,14.1,61,0.00,,SKC,0.00,VWS V14.01,2013-07-18 15:20:00,
2013-07-18 10:40:00,86.2,70.7,29.97,SSE,158,4.9,15.3,60,0.00,,SKC,0.00,VWS V14.01,2013-07-18 15:40:00,
2013-07-18 11:00:00,89.1,72.9,29.97,South,180,2.6,17.6,59,0.00,,SKC,0.00,VWS V14.01,2013-07-18 16:00:00,
2013-07-18 11:20:00,90.5,71.1,29.97,SW,225,10.6,18.0,53,0.00,,SKC,0.00,VWS V14.01,2013-07-18 16:20:00,
2013-07-18 11:40:00,91.4,72.4,29.97,WNW,292,3.1,16.1,54,0.00,,SKC,0.00,VWS V14.01,2013-07-18 16:40:00,
2013-07-18 12:00:00,92.5,71.7,29.97,WSW,248,5.4,14.1,51,0.00,,SKC,0.00,VWS V14.01,2013-07-18 17:00:00,
2013-07-18 12:20:00,93.2,68.7,29.94,SSE,158,9.3,18.0,45,0.00,,SKC,0.00,VWS V14.01,2013-07-18 17:20:00,
2013-07-18 12:40:00,93.2,69.4,29.94,West,270,2.3,17.2,46,0.00,,SKC,0.00,VWS V14.01,2013-07-18 17:40:00,
2013-07-18 13:00:00,93.9,69.4,29.94,SSE,158,5.1,17.2,45,0.00,,SKC,0.00,VWS V14.01,2013-07-18 18:00:00,
2013-07-18 13:20:00,93.7,67.9,29.94,South,180,8.5,21.1,43,0.00,,SKC,0.00,VWS V14.01,2013-07-18 18:20:00,
2013-07-18 13:40:00,92.1,66.4,29.94,South,180,4.1,18.0,43,0.00,,SKC,0.00,VWS V14.01,2013-07-18 18:40:00,
2013-07-18 14:00:00,93.0,69.2,29.94,ENE,68,4.1,20.8,46,0.00,,SKC,0.00,VWS V14.01,2013-07-18 19:00:00,
2013-07-18 14:20:00,93.9,68.7,29.91,SW,225,6.7,16.4,44,0.00,,SKC,0.00,VWS V14.01,2013-07-18 19:20:00,
2013-07-18 14:40:00,92.3,69.2,29.91,SW,225,3.1,22.7,47,0.00,,SKC,0.00,VWS V14.01,2013-07-18 19:40:00,
2013-07-18 15:00:00,92.5,69.9,29.91,SW,225,6.4,19.2,48,0.00,,SKC,0.00,VWS V14.01,2013-07-18 20:00:00,
2013-07-18 15:20:00,91.2,68.2,29.88,WSW,248,10.8,22.3,47,0.00,,SKC,0.00,VWS V14.01,2013-07-18 20:20:00,
2013-07-18 15:40:00,91.0,68.0,29.88,SSE,158,8.2,19.2,47,0.00,,SKC,0.00,VWS V14.01,2013-07-18 20:40:00,
2013-07-18 16:00:00,91.6,69.7,29.88,SW,225,1.5,18.8,49,0.00,,SKC,0.00,VWS V14.01,2013-07-18 21:00:00,
2013-07-18 16:20:00,91.6,69.1,29.88,South,180,2.3,15.3,48,0.00,,SKC,0.00,VWS V14.01,2013-07-18 21:20:00,
2013-07-18 16:40:00,90.1,67.8,29.88,NE,45,3.6,12.9,48,0.00,,SKC,0.00,VWS V14.01,2013-07-18 21:40:00,
2013-07-18 17:00:00,89.6,67.9,29.88,South,180,6.4,15.3,49,0.00,,SKC,0.00,VWS V14.01,2013-07-18 22:00:00,
2013-07-18 17:20:00,89.6,66.7,29.88,SE,135,2.8,16.8,47,0.00,,SKC,0.00,VWS V14.01,2013-07-18 22:20:00,
2013-07-18 17:40:00,88.9,67.8,29.85,NNW,338,2.3,12.5,50,0.00,,SKC,0.00,VWS V14.01,2013-07-18 22:40:00,
2013-07-18 18:00:00,88.7,68.3,29.85,East,90,3.9,11.0,51,0.00,,SKC,0.00,VWS V14.01,2013-07-18 23:00:00,
2013-07-18 18:20:00,88.0,68.2,29.82,WNW,292,2.3,17.2,52,0.00,,SKC,0.00,VWS V14.01,2013-07-18 23:20:00,
2013-07-18 18:40:00,87.1,67.9,29.82,SSE,158,3.9,22.3,53,0.00,,SKC,0.00,VWS V14.01,2013-07-18 23:40:00,
2013-07-18 19:00:00,86.5,68.5,29.82,NNW,338,4.1,13.7,55,0.00,,SKC,0.00,VWS V14.01,2013-07-19 00:00:00,
2013-07-18 19:20:00,85.6,69.2,29.79,SSW,202,2.8,20.8,58,0.00,,SKC,0.00,VWS V14.01,2013-07-19 00:20:00,
2013-07-18 19:40:00,84.9,69.0,29.82,SSW,202,2.3,22.3,59,0.00,,SKC,0.00,VWS V14.01,2013-07-19 00:40:00,
2013-07-18 20:00:00,84.4,69.0,29.79,WSW,248,4.9,16.8,60,0.00,,SKC,0.00,VWS V14.01,2013-07-19 01:00:00,
2013-07-18 20:20:00,83.7,69.3,29.79,SSE,158,2.3,13.3,62,0.00,,SKC,0.00,VWS V14.01,2013-07-19 01:20:00,
2013-07-18 20:40:00,82.8,68.9,29.79,WSW,248,1.3,11.0,63,0.00,,SKC,0.00,VWS V14.01,2013-07-19 01:40:00,
2013-07-18 21:00:00,82.2,68.8,29.79,WNW,292,2.6,8.2,64,0.00,,SKC,0.00,VWS V14.01,2013-07-19 02:00:00,
2013-07-18 21:20:00,81.7,68.3,29.79,SSE,158,4.4,10.2,64,0.00,,SKC,0.00,VWS V14.01,2013-07-19 02:20:00,
2013-07-18 21:40:00,81.5,68.2,29.79,SE,135,2.3,10.6,64,0.00,,SKC,0.00,VWS V14.01,2013-07-19 02:40:00,
2013-07-18 22:00:00,81.3,68.4,29.79,South,180,5.7,10.6,65,0.00,,SKC,0.00,VWS V14.01,2013-07-19 03:00:00,
2013-07-18 22:20:00,81.0,68.5,29.79,SSE,158,3.3,12.9,66,0.00,,SKC,0.00,VWS V14.01,2013-07-19 03:20:00,
2013-07-18 22:40:00,80.6,68.2,29.76,SSW,202,9.0,13.7,66,0.00,,SKC,0.00,VWS V14.01,2013-07-19 03:40:00,
2013-07-18 23:00:00,80.4,68.5,29.76,South,180,1.8,13.7,67,0.00,,SKC,0.00,VWS V14.01,2013-07-19 04:00:00,
2013-07-18 23:20:00,80.1,68.6,29.76,South,180,4.1,12.9,68,0.00,,SKC,0.00,VWS V14.01,2013-07-19 04:20:00,
2013-07-18 23:40:00,80.2,68.7,29.76,SSW,202,6.7,13.7,68,0.00,,SKC,0.00,VWS V14.01,2013-07-19 04:40:00,